Location: Waco, TX
(31.5480°N, 97.1670°W)
Time: 19:10:39
(UTC-06:00)

ISS - Pass Details

Date: 07 January 2018
Orbit: 401 x 406 km, 51.6° (Epoch: 17 January)

Event Time Altitude Azimuth Distance (km) Brightness Sun altitude
Rises 09:52:46 0° 315° (NW) 2,325 -0.6 23.6°
Reaches altitude 10° 09:54:51 10° 316° (NW) 1,463 -1.5 23.9°
Maximum altitude 09:58:08 85° 42° (NE) 411 -3.4 24.3°
Drops below altitude 10° 10:01:24 10° 134° (SE) 1,457 0.9 24.8°
Sets 10:03:29 0° 135° (SE) 2,314 1.4 25.1°
